Tracking 18793 objects as of 22-September-2017
HD Live streaming from Space Station
objects crossing your sky now

CHINASAT 5B (SINOSAT 1)

Track CHINASAT 5B (SINOSAT 1) now!
CHINASAT 5B (SINOSAT 1) is classified as:


NORAD ID: 25404
Int'l Code: 1998-044A
Perigee: 36,041.6 km
Apogee: 36,163.5 km
Inclination: 4.6 °
Period: 1,451.9 minutes
Semi major axis: 42473 km
RCS: 25.1188 m2 (large)
Launch date: July 18, 1998
Source: People's Republic of China (PRC)
Launch site: Xichang Space Center, China (XSC)

11 C-band, broadcasting, business services, direct-to-home TV broadcasting, telecommunications, VSAT networks; Asia Pacific region.
aabbcc
Your satellite tracking list
Your tracking list is empty





NASA's NSSDC Master Catalog

Two Line Element Set (TLE):
1 25404U 98044A   17264.65660781 -.00000019 +00000-0 +00000-0 0  9990
2 25404 004.5913 065.4557 0014351 159.5849 215.5295 00.99180189070265
Source of the keplerian elements: AFSPC